Home > Weather > Basse-Terre > Past weeks

Flag for Guadeloupe Past Weather in Basse-Terre, Guadeloupe — Yesterday and Last 2 Weeks

Now
81 °F

Partly sunny.


Feels Like: 86 °F
Forecast: 77 / 84 °F
Wind: 10 mph from South

Location: Le Raizet - Guadeloupe

Current Time: Aug 25, 2016 at 7:43:39 AM

Latest Report: Aug 25, 2016 at 7:00 AM


Visibility: N/A

Pressure: 29.95 "Hg

Humidity: 84%

Dew Point: 75 °F

Location of Basse-TerreLocation

Past Weather in Basse-Terre — Graph

°F

Basse-Terre Temperature Yesterday

Maximum temperature yesterday: 86 °F (at 1:30 PM)
Minimum temperature yesterday: 73 °F (at 4:30 AM)
Average temperature yesterday: 79 °F

High & Low Weather Summary for the Past Weeks

 TemperatureHumidityPressure
High91 °F (Aug 22, 12:30 PM)100% (Aug 13, 6:30 AM)30.04 "Hg (Aug 13, 6:30 AM)
Low73 °F (Aug 23, 4:30 AM)52% (Aug 10, 1:30 PM)29.83 "Hg (Aug 23, 4:00 PM)
Average82 °F78%29.97 "Hg
* Reported Aug 10 6:00 AM — Aug 25 6:30 AM, Basse-Terre, Weather by CustomWeather, © 2016

Note: Actual official high and low records may vary slightly from our data, if they occured in-between our weather recording intervals... More about our weather records

Advertising

Basse-Terre Weather History for the Previous 24 Hours

Scroll right to see more
 ConditionsComfort  
Time TempWeatherWind HumidityBarometerVisibility
6:30 AM
Thu, Aug 25
81 °FWarm.3 mph84%29.95 "HgN/A
6:00 AM79 °FWarm.5 mph89%29.92 "HgN/A
5:30 AM79 °FWarm.8 mph89%29.92 "HgN/A
5:00 AM79 °FWarm.6 mph94%29.92 "HgN/A
4:30 AM79 °FOvercast.5 mph94%29.92 "HgN/A
4:00 AM77 °FPartly cloudy.No wind94%29.92 "HgN/A
3:30 AM77 °FWarm.1 mph94%29.92 "HgN/A
3:00 AM77 °FWarm.No wind94%29.92 "HgN/A
2:30 AM77 °FPassing clouds.2 mph94%29.89 "HgN/A
2:00 AM77 °FClear.No wind94%29.92 "HgN/A
1:30 AM77 °FClear.No wind94%29.92 "HgN/A
1:00 AM77 °FClear.3 mph89%29.95 "HgN/A
12:30 AM79 °FClear.No wind89%29.95 "HgN/A
12:00 AM79 °FClear.3 mph89%29.95 "HgN/A
11:30 PM
Wed, Aug 24
79 °FClear.5 mph89%29.95 "HgN/A
11:00 PM79 °FMostly cloudy.3 mph84%29.95 "HgN/A
10:30 PM77 °FClear.3 mph94%29.98 "HgN/A
10:00 PM79 °FClear.2 mph89%29.98 "HgN/A
9:30 PM77 °FClear.No wind94%29.98 "HgN/A
9:00 PM79 °FClear.1 mph89%29.95 "HgN/A
8:30 PM79 °FPassing clouds.3 mph89%29.95 "HgN/A
8:00 PM79 °FClear.2 mph84%29.92 "HgN/A
7:30 PM79 °FClear.3 mph84%29.92 "HgN/A
7:00 PM79 °FClear.5 mph84%29.92 "HgN/A
6:30 PM81 °FClear.6 mph79%29.92 "HgN/A
6:00 PM81 °FClear.7 mph79%29.92 "HgN/A
5:30 PM81 °FClear.7 mph79%29.92 "HgN/A
5:00 PM81 °FClear.8 mph79%29.89 "HgN/A
4:30 PM81 °FScattered clouds.9 mph79%29.89 "HgN/A
4:00 PM84 °FScattered clouds.10 mph74%29.89 "HgN/A
3:30 PM86 °FPartly sunny.9 mph66%29.89 "HgN/A
3:00 PM86 °FPassing clouds.9 mph66%29.92 "HgN/A
2:30 PM86 °FClear.9 mph66%29.92 "HgN/A
2:00 PM86 °FPassing clouds.7 mph66%29.92 "HgN/A
1:30 PM86 °FPartly sunny.8 mph70%29.92 "HgN/A
1:00 PM84 °FWarm.7 mph74%29.95 "HgN/A
12:30 PM84 °FWarm.8 mph74%29.95 "HgN/A
12:00 PM84 °FWarm.7 mph70%29.95 "HgN/A
11:30 AM84 °FWarm.9 mph74%29.95 "HgN/A
11:00 AM82 °FWarm.10 mph74%29.95 "HgN/A
10:30 AM79 °FWarm.7 mph89%29.98 "HgN/A
10:00 AM77 °FWarm.9 mph94%29.98 "HgN/A
9:30 AM77 °FWarm.8 mph94%29.95 "Hg4 mi
9:00 AM75 °FLight rain. Broken clouds.8 mph100%29.95 "Hg4 mi
8:30 AM75 °FLight rain. Cloudy.8 mph94%29.95 "Hg5 mi
8:00 AM73 °FLight rain. Cloudy.3 mph94%29.95 "Hg4 mi
7:30 AM73 °FLight rain. Cloudy.3 mph94%29.95 "Hg4 mi
7:00 AM75 °FRain. Fog.3 mph94%29.92 "Hg2 mi
Weather by CustomWeather, © 2016

See weather overviewHow to use our weather pages